Weather History for KART - October, 2012

Change the Weather History Date:

Friday, October 12, 2012

  Actual Average Record
Temperature  
Mean Temperature 39 °F 49 °F  
Max Temperature 51 °F 60 °F 78 °F (1954)
Min Temperature 26 °F 39 °F 23 °F (2009)
Degree Days  
Heating Degree Days 26 16  
Month to date heating degree days 132 166  
Since 1 July heating degree days 318 440  
Cooling Degree Days 0 0  
Month to date cooling degree days 0 0  
Year to date cooling degree days 606 359  
Moisture  
Dew Point 31 °F    
Average Humidity 65    
Maximum Humidity 92    
Minimum Humidity 37    
Precipitation  
Precipitation 0.02 in 0.12 in 0.67 in (1970)
Month to date precipitation 1.64 1.52  
Year to date precipitation 27.70 27.04  
Sea Level Pressure  
Sea Level Pressure 30.23 in    
Wind  
Wind Speed 9 mph (NNW)    
Max Wind Speed 21 mph    
Max Gust Speed 26 mph    
Visibility 10 miles    
Events Rain    
T = Trace of Precipitation, MM = Missing Value Source: NWS Daily Summary

Daily Weather History Graph

Daily Weather History Graph

Search for Another Location

Airport or City:

Trip Planner

Search our weather history database for the weather conditions in past years. The results will help you decide how hot, cold, wet, or windy it might be!

Date:

Astronomy

Oct. 12, 2012 Rise Set
Actual Time 7:15 AM EDT 6:24 PM EDT
Civil Twilight 6:46 AM EDT 6:53 PM EDT
Nautical Twilight 6:13 AM EDT 7:26 PM EDT
Astronomical Twilight 5:39 AM EDT 8:00 PM EDT
Moon 3:50 AM EDT (10/12) 4:37 PM EDT (10/12)
Length of Visible Light 12h 07m
Length of Day
11h 09m
Waning Crescent, 11% of the Moon is Illuminated
Oct 12
Waning Crescent
Oct 15
New
Oct 21
First Quarter
Oct 29
Full
Nov 6
Last Quarter

Hourly Weather History & Observations

Time (EDT) Temp. Windchill Dew Point Humidity Pressure Visibility Wind Dir Wind Speed Gust Speed Precip Events Conditions
12:56 AM 51.8 °F - 42.8 °F 71% 29.98 in 10.0 mi West 17.3 mph 23.0 mph N/A   Overcast
1:52 AM 48.2 °F - 42.8 °F 82% 30.00 in 6.0 mi NW 20.7 mph 26.5 mph 0.00 in Rain Light Rain
1:56 AM 46.0 °F 39.3 °F 42.1 °F 86% 30.01 in 5.0 mi NW 16.1 mph 26.5 mph 0.00 in Rain Light Rain
2:15 AM 46.4 °F 41.5 °F 42.8 °F 87% 30.00 in 10.0 mi WNW 10.4 mph - 0.01 in Rain Light Rain
2:56 AM 46.0 °F 39.9 °F 37.9 °F 73% 30.02 in 9.0 mi West 13.8 mph 24.2 mph 0.02 in Rain Light Rain
3:56 AM 46.9 °F - 37.0 °F 68% 30.04 in 10.0 mi West 11.5 mph - 0.00 in Rain Light Rain
4:56 AM 46.0 °F 41.0 °F 37.0 °F 71% 30.06 in 10.0 mi NW 10.4 mph - 0.00 in   Overcast
5:56 AM 45.0 °F 41.2 °F 37.9 °F 76% 30.08 in 10.0 mi WNW 6.9 mph - 0.00 in   Overcast
6:56 AM 44.1 °F 38.1 °F 37.0 °F 76% 30.11 in 10.0 mi NNW 11.5 mph - 0.00 in Rain Light Rain
7:56 AM 39.9 °F 33.9 °F 34.0 °F 79% 30.16 in 10.0 mi North 9.2 mph - 0.00 in   Partly Cloudy
8:56 AM 42.1 °F 35.7 °F 34.0 °F 73% 30.20 in 10.0 mi North 11.5 mph 17.3 mph N/A   Clear
9:56 AM 43.0 °F 36.4 °F 32.0 °F 65% 30.23 in 10.0 mi North 12.7 mph 21.9 mph N/A   Partly Cloudy
10:24 AM 44.6 °F 37.8 °F 32.0 °F 61% 30.24 in 10.0 mi NNW 15.0 mph 18.4 mph N/A   Mostly Cloudy
10:32 AM 42.8 °F 35.8 °F 32.0 °F 66% 30.25 in 10.0 mi North 13.8 mph - N/A   Partly Cloudy
10:56 AM 44.1 °F 37.7 °F 33.1 °F 65% 30.26 in 10.0 mi North 12.7 mph - N/A   Scattered Clouds
11:56 AM 45.0 °F 39.3 °F 28.9 °F 53% 30.27 in 10.0 mi North 11.5 mph 19.6 mph N/A   Mostly Cloudy
12:56 PM 46.9 °F - 26.1 °F 44% 30.29 in 10.0 mi NNW 13.8 mph 23.0 mph N/A   Mostly Cloudy
1:56 PM 44.1 °F 38.1 °F 25.0 °F 47% 30.32 in 10.0 mi NNW 11.5 mph - N/A   Overcast
2:56 PM 46.4 °F 40.7 °F 21.2 °F 37% 30.32 in 10.0 mi WNW 12.7 mph - N/A   Mostly Cloudy
3:56 PM 46.4 °F 41.5 °F 21.2 °F 37% 30.32 in 10.0 mi NW 10.4 mph - N/A   Mostly Cloudy
4:56 PM 46.0 °F 40.6 °F 21.0 °F 37% 30.34 in 10.0 mi North 11.5 mph - N/A   Partly Cloudy
5:56 PM 44.1 °F 40.1 °F 21.0 °F 40% 30.36 in 10.0 mi NW 6.9 mph - N/A   Clear
6:56 PM 37.4 °F - 24.8 °F 60% 30.37 in 10.0 mi Calm Calm - N/A   Clear
7:56 PM 30.9 °F - 27.0 °F 85% 30.40 in 10.0 mi Calm Calm - N/A   Clear
8:56 PM 28.4 °F - 26.6 °F 93% 30.40 in 10.0 mi Calm Calm - N/A   Clear
9:56 PM 28.4 °F - 24.8 °F 86% 30.42 in 10.0 mi Calm Calm - N/A   Clear
10:56 PM 28.0 °F 22.8 °F 25.0 °F 88% 30.44 in 10.0 mi East 4.6 mph - N/A   Clear
11:56 PM 26.6 °F 21.2 °F 24.8 °F 93% 30.42 in 10.0 mi East 4.6 mph - N/A   Clear